Home   Weather   Geneva   Past weeks
Flag for Switzerland

Past Weather in Geneva, Geneva, Switzerland — Yesterday and Last 2 Weeks

Now
69 °F

Mild.


Feels Like: 69 °F
Forecast: 72 / 51 °F
Wind: 7 mph from Northeast

Location: Geneve-Cointrin

Current Time: May 25, 2019 at 1:36:41 pm

Latest Report: May 25, 2019 at 12:00 pm


Visibility: N/A

Pressure: 29.96 "Hg

Humidity: 47%

Dew Point: 48 °F

Location of GenevaLocation

Past Weather in Geneva — Graph

°F

Geneva Temperature Yesterday

Maximum temperature yesterday: 74 °F (at 4:00 pm)
Minimum temperature yesterday: 49 °F (at 6:00 am)
Average temperature yesterday: 62 °F

High & Low Weather Summary for the Past Weeks

 TemperatureHumidityPressure
High74 °F (May 24, 4:00 pm)97% (May 20, 5:00 am)30.36 "Hg (May 20, 5:00 am)
Low39 °F (May 16, 5:00 am)31% (May 23, 4:00 pm)29.64 "Hg (May 19, 4:00 pm)
Average55 °F65%29.97 "Hg
* Reported May 10 12:00 pm — May 25 12:00 pm, Geneva. Weather by CustomWeather, © 2019

Note: Actual official high and low records may vary slightly from our data, if they occured in-between our weather recording intervals... More about our weather records

Advertising

Geneva Weather History for the Previous 24 Hours

Scroll right to see more
 ConditionsComfort  
Time TempWeatherWind HumidityBarometerVisibility
12:00 pm
Sat, May 25
69 °FMild.7 mph47%29.96 "HgN/A
11:00 am69 °FScattered clouds.3 mph51%29.96 "Hg19 mi
10:00 am64 °FMild.3 mph56%29.98 "HgN/A
9:00 am62 °FCool.1 mph69%29.98 "HgN/A
8:00 am56 °FOvercast.1 mph76%29.98 "Hg22 mi
7:00 am55 °FCool.1 mph81%29.98 "HgN/A
6:00 am53 °FCool.2 mph85%29.97 "HgN/A
5:00 am54 °FCool.1 mph82%29.96 "HgN/A
2:00 am55 °FCool.1 mph79%29.96 "HgN/A
1:00 am58 °FCool.1 mph73%29.96 "HgN/A
12:00 am60 °FCool.1 mph66%29.94 "HgN/A
11:00 pm
Fri, May 24
61 °FPassing clouds.1 mph63%29.94 "Hg28 mi
10:00 pm61 °FCool.2 mph66%29.93 "HgN/A
9:00 pm64 °FMild.3 mph59%29.91 "HgN/A
8:00 pm66 °FOvercast.5 mph54%29.89 "Hg28 mi
7:00 pm70 °FMild.6 mph45%29.87 "HgN/A
6:00 pm69 °FMild.3 mph51%29.88 "HgN/A
5:00 pm71 °FPartly sunny.8 mph44%29.88 "Hg31 mi
4:00 pm74 °FMild.6 mph36%29.88 "HgN/A
3:00 pm72 °FMild.6 mph38%29.89 "HgN/A
2:00 pm71 °FPartly sunny.3 mph40%29.90 "Hg19 mi
1:00 pm69 °FMild.2 mph40%29.93 "HgN/A
Weather by CustomWeather, © 2019

See weather overview